Change the Weather History Date:

Sunday, January 22, 2012

  Actual Average Record
Temperature  
Mean Temperature 38 °F 34 °F  
Max Temperature 41 °F 42 °F 65 °F (1967)
Min Temperature 34 °F 26 °F -5 °F (1970)
Degree Days  
Heating Degree Days 27 31  
Month to date heating degree days 631 682  
Since 1 July heating degree days 2123 2447  
Cooling Degree Days 0 0  
Month to date cooling degree days 0 0  
Year to date cooling degree days 0 0  
Moisture  
Dew Point 33 °F    
Average Humidity 86    
Maximum Humidity 96    
Minimum Humidity 76    
Precipitation  
Precipitation 0.00 in 0.09 in 0.90 in (1987)
Month to date precipitation 2.23 2.07  
Year to date precipitation 2.23 2.07  
Snow  
Snow 0.00 in - - ()
Month to date snowfall 5.4  
Since 1 July snowfall 8.6  
Snow Depth 0.00 in    
Sea Level Pressure  
Sea Level Pressure 30.17 in    
Wind  
Wind Speed 9 mph (SE)    
Max Wind Speed 23 mph    
Max Gust Speed 32 mph    
Visibility 6 miles    
Events Fog    
T = Trace of Precipitation, MM = Missing Value Source: NWS Daily Summary

Daily Weather History Graph

Daily Weather History Graph

Search for Another Location

Airport or City:

Trip Planner

Search our weather history database for the weather conditions in past years. The results will help you decide how hot, cold, wet, or windy it might be!

Date:

Astronomy

Jan. 22, 2012 Rise Set
Actual Time 7:35 AM EST 5:37 PM EST
Civil Twilight 7:07 AM EST 6:05 PM EST
Nautical Twilight 6:35 AM EST 6:37 PM EST
Astronomical Twilight 6:04 AM EST 7:08 PM EST
Moon 6:50 AM EST (1/22) 5:17 PM EST (1/22)
Length of Visible Light 10h 58m
Length of Day
10h 02m
Waning Crescent, 0% of the Moon is Illuminated
Jan 22
Waning Crescent
Jan 23
New
Jan 30
First Quarter
Feb 7
Full
Feb 14
Last Quarter

Hourly Weather History & Observations

Time (EST) Temp. Windchill Dew Point Humidity Pressure Visibility Wind Dir Wind Speed Gust Speed Precip Events Conditions
12:52 AM 34.0 °F 31.0 °F 32.0 °F 92% 30.13 in 0.2 mi ENE 3.5 mph - N/A Fog Fog
1:52 AM 35.1 °F - 33.1 °F 92% 30.14 in 0.2 mi Calm Calm - N/A Fog Fog
2:14 AM 35.6 °F - 33.8 °F 93% 30.12 in 0.5 mi Calm Calm - N/A Fog Fog
2:52 AM 35.1 °F 31.0 °F 33.1 °F 92% 30.13 in 0.5 mi Variable 4.6 mph - N/A Fog Fog
2:59 AM 35.6 °F 30.7 °F 33.8 °F 93% 30.11 in 1.0 mi ENE 5.8 mph - N/A   Mist
3:02 AM 35.6 °F 29.2 °F 33.8 °F 93% 30.11 in 2.0 mi East 8.1 mph - N/A   Overcast
3:25 AM 37.4 °F 33.8 °F 33.8 °F 87% 30.11 in 4.0 mi East 4.6 mph - N/A   Overcast
3:52 AM 37.9 °F 35.5 °F 35.1 °F 89% 30.13 in 6.0 mi ESE 3.5 mph - N/A   Overcast
4:05 AM 37.4 °F 32.8 °F 35.6 °F 93% 30.11 in 10.0 mi Variable 5.8 mph 16.1 mph N/A   Overcast
4:52 AM 37.9 °F 32.7 °F 35.1 °F 89% 30.13 in 10.0 mi East 6.9 mph - N/A   Overcast
5:25 AM 37.4 °F 32.1 °F 35.6 °F 93% 30.12 in 2.5 mi Variable 6.9 mph - N/A   Overcast
5:49 AM 37.4 °F 32.1 °F 33.8 °F 87% 30.12 in 0.5 mi Variable 6.9 mph - N/A Fog Fog
5:52 AM 37.0 °F 32.4 °F 34.0 °F 89% 30.15 in 0.5 mi Variable 5.8 mph - N/A Fog Fog
7:52 AM 35.1 °F 29.3 °F 32.0 °F 89% 30.20 in 0.2 mi Variable 6.9 mph - N/A Fog Fog
8:52 AM 35.1 °F 28.6 °F 32.0 °F 89% 30.21 in 0.5 mi SE 8.1 mph 16.1 mph N/A Fog Fog
9:04 AM 35.6 °F 28.0 °F 32.0 °F 87% 30.17 in 1.0 mi SE 10.4 mph - N/A   Mist
9:11 AM 35.6 °F 28.6 °F 32.0 °F 87% 30.17 in 1.8 mi SE 9.2 mph 16.1 mph N/A   Overcast
9:18 AM 35.6 °F 29.2 °F 32.0 °F 87% 30.17 in 2.5 mi SE 8.1 mph 16.1 mph N/A   Overcast
9:31 AM 35.6 °F 30.7 °F 32.0 °F 87% 30.18 in 4.0 mi Variable 5.8 mph 16.1 mph N/A   Overcast
9:52 AM 35.1 °F 32.2 °F 33.1 °F 92% 30.23 in 6.0 mi Variable 3.5 mph - N/A   Overcast
11:29 AM 37.4 °F 30.8 °F 33.8 °F 87% 30.19 in 10.0 mi SSE 9.2 mph - N/A   Overcast
11:52 AM 39.0 °F 32.8 °F 32.0 °F 76% 30.22 in 10.0 mi SE 9.2 mph 20.7 mph N/A   Mostly Cloudy
12:52 PM 39.9 °F 32.9 °F 32.0 °F 73% 30.22 in 10.0 mi SE 11.5 mph 23.0 mph N/A   Mostly Cloudy
1:29 PM 39.2 °F 32.5 °F 30.2 °F 70% 30.19 in 10.0 mi SE 10.4 mph 19.6 mph N/A   Scattered Clouds
1:52 PM 39.9 °F 32.5 °F 32.0 °F 73% 30.21 in 10.0 mi SE 12.7 mph 20.7 mph N/A   Partly Cloudy
2:17 PM 39.2 °F 32.0 °F 30.2 °F 70% 30.18 in 10.0 mi SE 11.5 mph 21.9 mph N/A   Scattered Clouds
2:52 PM 37.9 °F 30.5 °F 30.9 °F 76% 30.21 in 10.0 mi SSE 11.5 mph 20.7 mph N/A   Scattered Clouds
3:31 PM 39.2 °F 32.5 °F 32.0 °F 75% 30.16 in 10.0 mi SE 10.4 mph - N/A   Mostly Cloudy
3:52 PM 39.0 °F 34.8 °F 32.0 °F 76% 30.20 in 10.0 mi Variable 5.8 mph - N/A   Mostly Cloudy
4:09 PM 39.2 °F 33.6 °F 32.0 °F 75% 30.18 in 10.0 mi SSE 8.1 mph 19.6 mph N/A   Scattered Clouds
4:52 PM 37.9 °F 30.9 °F 32.0 °F 79% 30.19 in 10.0 mi SE 10.4 mph 16.1 mph N/A   Mostly Cloudy
5:32 PM 37.4 °F 31.4 °F 32.0 °F 81% 30.17 in 10.0 mi SE 8.1 mph - N/A   Scattered Clouds
5:52 PM 37.0 °F 28.9 °F 32.0 °F 82% 30.20 in 10.0 mi SE 12.7 mph 18.4 mph N/A   Scattered Clouds
6:52 PM 37.0 °F 29.3 °F 33.1 °F 86% 30.20 in 10.0 mi SSE 11.5 mph 20.7 mph N/A   Mostly Cloudy
7:52 PM 37.9 °F 30.0 °F 34.0 °F 86% 30.19 in 10.0 mi SE 12.7 mph 23.0 mph N/A   Overcast
8:52 PM 39.0 °F 30.3 °F 35.1 °F 86% 30.20 in 10.0 mi SSE 16.1 mph 24.2 mph N/A   Overcast
9:52 PM 39.0 °F 30.6 °F 35.1 °F 86% 30.20 in 10.0 mi SSE 15.0 mph 29.9 mph N/A   Mostly Cloudy
10:14 PM 39.2 °F 31.2 °F 35.6 °F 87% 30.16 in 10.0 mi SSE 13.8 mph 27.6 mph N/A   Mostly Cloudy
10:52 PM 39.9 °F 31.8 °F 36.0 °F 86% 30.17 in 10.0 mi SSE 15.0 mph 21.9 mph N/A   Mostly Cloudy
11:52 PM 39.9 °F 31.8 °F 36.0 °F 86% 30.14 in 10.0 mi SSE 15.0 mph 25.3 mph N/A   Partly Cloudy